Location: Slanting_Bridge
(35.6330°N, 80.9830°W)
Time: 16:37:58
(UTC-04:00)

Hamsat - Visible Passes

Search period start: 01 October 2016 00:00
Search period end: 11 October 2016 00:00
Orbit: 587 x 618 km, 97.6° (Epoch: 01 October)

Date Brightness Start Highest point End Pass type
(mag) Time Alt. Az. Time Alt. Az. Time Alt. Az.
01 Oct ? 05:07:18 10° NE 05:10:54 25° E 05:14:27 10° SSE visible
01 Oct ? 06:43:10 10° NNW 06:46:32 23° WNW 06:49:53 10° WSW visible
02 Oct ? 05:18:58 10° NNE 05:22:56 35° E 05:26:49 10° SSE visible
03 Oct ? 05:30:45 10° NNE 05:34:56 49° E 05:39:03 10° S visible
04 Oct ? 05:42:37 10° NNE 05:46:55 71° ESE 05:51:08 10° S visible
05 Oct ? 05:54:33 10° N 05:58:52 82° WNW 06:03:07 10° SSW visible
06 Oct ? 06:06:35 10° N 06:10:48 58° WNW 06:14:57 10° SSW visible
07 Oct ? 04:44:36 10° ENE 04:46:46 14° E 04:48:54 10° ESE visible
07 Oct ? 06:18:41 10° N 06:22:43 41° WNW 06:26:41 10° SW visible
08 Oct ? 04:55:46 10° NE 04:58:49 19° E 05:01:49 10° SE visible
08 Oct ? 06:30:52 10° N 06:34:36 30° WNW 06:38:17 10° SW visible
09 Oct ? 05:07:15 10° NE 05:10:50 26° E 05:14:22 10° SSE visible
09 Oct ? 06:43:10 10° NNW 06:46:28 22° WNW 06:49:44 10° WSW visible
10 Oct ? 05:18:55 10° NNE 05:22:51 35° E 05:26:43 10° SSE visible
10 Oct ? 06:55:39 10° NNW 06:58:19 16° WNW 07:00:57 10° WSW visible
